ONEWEB-0642, 55806

Orbit data source: Space-Track

ONEWEB-0642, 55806 is a payload satellite owned by One Web (NAA) (UK) in LEO that was launched on Thu, 09 Mar 2023 UTC via an FALCON 9 launch vehicle from the Air Force Eastern Test Range (AFETR). Payload-class satellites include a variety of spacecraft equipped with specific instruments for various scientific and technological missions. These include communications satellites like Starlink; space stations such as the ISS; scientific satellites like the Hubble; Earth observation satellites from companies like Planet Labs, Umbra, and HawkEye 360; GPS; miniature CubeSats for education and research; and military/defense satellites.

Loading next visibility...
Identifier
55806, 2023-029L
Orbit
LEO
Country
Flag of UKUK
Related business
Manufacturer
One Web
Mission
Operational Commercial Communications
Bus & Motor
ARROW, Unknown motor
Mass
148 kg wet, ~140 kg dry
Launch date (UTC)
2023-03-09 (3 years ago)
Launch vehicle
FALCON 9
Launch site
Air Force Eastern Test Range (AFETR)
Object type
Payload
Rocket body
Debris
Shape & HBR
Trap Box + 2 Pan, 6.7 m
Radar Cross Section
3.464 m², Large (>1 m²)

Expand to show TLE details & history
Last TLE update: 2 days ago

TLE from 2 days ago
0 ONEWEB-0642
1 55806U 23029L   26171.43419836  .00000018  00000-0  11722-4 0  9991
2 55806  87.9173 304.3298 0001755 126.2887 233.8408 13.19725093159331
Epoch: 2026-06-20T10:25Z
TLE epoch observation values (Epoch: 2026-06-20T10:25:14.738Z)
Latitude
-0.00001°
Longitude
-120.63049°
Altitude
1,189.455 km
Speed
7.259 km/s
True Right ascension
20h 17m 19s
True Declination
0° 00' 00"
Sunlit
Object was in full shadow at epoch
Visualization orbit readout
Latitude
Unknown
Longitude
Unknown
Altitude
Unknown
Speed
Unknown
Apparent Right ascension
Unknown
Apparent Declination
Unknown
Sunlit
N/A
Visualization observer readout
Local Sidereal Time
21:31:42
Azimuth
Unknown
Elevation
Unknown
Doppler factor
Unknown
Orbital elements
Apogee altitude
1,184.203 km
Perigee altitude
1,181.549 km
Semi-major axis
7,561.013 km
Eccentricity
0.00018
Inclination
87.9173°
RAAN
304.3298°
Arg. of periapsis
126.2887°
True anomaly
233.82457°
Mean anomaly
233.8408°
Eccentric anomaly
233.83268°
Mean motion
3.30121 °/min
Orbital period
109.05 mins
BSTAR
0.000011722
Loading maneuver chart data...
Computing Atmospheric mass density...
Loading historical data...
Loading historical data...
Loading historical data...
Loading historical data...
Loading historical data...
Loading historical data...
Loading historical data...

Documentation

Showing up to 5 results
|